Location: Bacharowice
(49.9333°N, 19.5833°E)
Time: 02:18:09
(UTC+00:00)

Meteor 1-26 Rocket - Pass Details

Date: 11 May 2021
Orbit: 807 x 928 km, 81.3° (Epoch: 22 June)

Event Time Altitude Azimuth Distance (km) Brightness Sun altitude
Rises 19:40:31 0° 195° (SSW) 3,446 7.1 -11.5°
Reaches altitude 10° 19:42:59 10° 198° (SSW) 2,495 6.4 -11.8°
Maximum altitude 19:48:37 74° 283° (WNW) 878 4.4 -12.4°
Drops below altitude 10° 19:54:09 10° 9° (N) 2,438 7.2 -13.0°
Sets 19:56:32 0° 12° (NNE) 3,363 7.9 -13.2°
